When you browse on this site, cookies collect data to enhance your experience and personalize the content and advertising you see.
Visit our Privacy Policy to learn more. By continuing to use the site, you agree to this use of cookies and data.
  • In Portugal
  • List of Countries
  • For 7 days
  • Water Temperature
  • Satellite Maps
  • Weather Map
  • Weather Widgets
  • user-avatar
    Login

    Hourly Weather Jewłach

    Today, 23 May, Thursday

    Time Temperature Precipitation Wind Pressure Humidity
    00:00 +21°C° 0 mm 2 mps 760 mmHg 46%
    01:00 +20°C° 0 mm 3 mps 760 mmHg 47%
    02:00 +20°C° 0 mm 3 mps 760 mmHg 47%
    03:00 +20°C° 0 mm 4 mps 759 mmHg 47%
    04:00 +20°C° 0 mm 4 mps 759 mmHg 50%
    05:00 +20°C° 0 mm 4 mps 759 mmHg 53%
    06:00 +20°C° 0 mm 4 mps 759 mmHg 55%
    07:00 +22°C° 0 mm 4 mps 759 mmHg 50%
    08:00 +25°C° 0 mm 4 mps 759 mmHg 45%
    09:00 +27°C° 0 mm 4 mps 759 mmHg 40%
    10:00 +28°C° 0 mm 4 mps 758 mmHg 37%
    11:00 +29°C° 0 mm 3 mps 758 mmHg 34%
    12:00 +31°C° 0 mm 3 mps 757 mmHg 31%
    13:00 +30°C° 0 mm 3 mps 757 mmHg 33%
    14:00 +30°C° 0 mm 3 mps 757 mmHg 36%
    15:00 +29°C° 0 mm 3 mps 756 mmHg 39%
    16:00 +29°C° 0 mm 3 mps 757 mmHg 40%
    17:00 +29°C° 0 mm 2 mps 757 mmHg 42%
    18:00 +29°C° 0 mm 2 mps 757 mmHg 43%
    19:00 +27°C° 0 mm 2 mps 757 mmHg 48%
    20:00 +26°C° 0 mm 1 mps 758 mmHg 52%
    21:00 +24°C° 0 mm 1 mps 758 mmHg 56%
    22:00 +24°C° 0 mm 1 mps 758 mmHg 55%
    23:00 +24°C° 0 mm 2 mps 758 mmHg 54%

    Tomorrow, 24 May, Friday

    Time Temperature Precipitation Wind Pressure Humidity
    00:00 +23°C° 0 mm 2 mps 758 mmHg 52%
    01:00 +22°C° 0 mm 1 mps 759 mmHg 53%
    02:00 +22°C° 0 mm 1 mps 759 mmHg 53%
    03:00 +19°C° 0 mm 0 mps 759 mmHg 54%
    04:00 +22°C° 0 mm 1 mps 759 mmHg 52%
    05:00 +22°C° 0 mm 1 mps 759 mmHg 50%
    06:00 +22°C° 0 mm 1 mps 759 mmHg 49%
    07:00 +24°C° 0 mm 1 mps 759 mmHg 43%
    08:00 +25°C° 0 mm 2 mps 759 mmHg 37%
    09:00 +27°C° 0 mm 2 mps 759 mmHg 31%
    10:00 +28°C° 0 mm 2 mps 759 mmHg 30%
    11:00 +29°C° 0 mm 1 mps 759 mmHg 29%
    12:00 +30°C° 0 mm 1 mps 758 mmHg 28%
    13:00 +31°C° 0 mm 1 mps 758 mmHg 28%
    14:00 +31°C° 0 mm 1 mps 758 mmHg 28%
    15:00 +32°C° 0 mm 1 mps 758 mmHg 29%
    16:00 +31°C° 0.1 mm 1 mps 758 mmHg 33%
    17:00 +31°C° 0.1 mm 1 mps 758 mmHg 37%
    18:00 +30°C° 0.1 mm 2 mps 758 mmHg 41%
    19:00 +28°C° 1.1 mm 2 mps 759 mmHg 50%
    20:00 +27°C° 1.1 mm 2 mps 760 mmHg 59%
    21:00 +25°C° 1.1 mm 2 mps 761 mmHg 68%
    22:00 +24°C° 0 mm 3 mps 761 mmHg 72%
    23:00 +22°C° 0 mm 3 mps 761 mmHg 76%

    Day after tomorrow, 25 May, Saturday

    Time Temperature Precipitation Wind Pressure Humidity
    00:00 +21°C° 0 mm 4 mps 761 mmHg 81%
    01:00 +21°C° 0 mm 3 mps 761 mmHg 81%
    02:00 +20°C° 0 mm 2 mps 760 mmHg 81%
    03:00 +21°C° 0 mm 1 mps 760 mmHg 81%
    04:00 +21°C° 0 mm 1 mps 760 mmHg 79%
    05:00 +22°C° 0 mm 1 mps 760 mmHg 77%
    06:00 +22°C° 0 mm 1 mps 760 mmHg 75%
    07:00 +24°C° 0 mm 1 mps 760 mmHg 67%
    08:00 +25°C° 0 mm 2 mps 759 mmHg 60%
    09:00 +27°C° 0 mm 2 mps 759 mmHg 52%
    10:00 +28°C° 0 mm 2 mps 759 mmHg 47%
    11:00 +30°C° 0 mm 1 mps 758 mmHg 41%
    12:00 +31°C° 0 mm 1 mps 757 mmHg 35%
    13:00 +32°C° 0.1 mm 1 mps 757 mmHg 34%
    14:00 +33°C° 0.1 mm 1 mps 756 mmHg 33%
    15:00 +34°C° 0.1 mm 1 mps 756 mmHg 31%
    16:00 +34°C° 0.2 mm 2 mps 756 mmHg 38%
    17:00 +33°C° 0.2 mm 3 mps 756 mmHg 44%
    18:00 +32°C° 0.2 mm 4 mps 756 mmHg 50%
    19:00 +30°C° 0.2 mm 3 mps 756 mmHg 54%
    20:00 +28°C° 0.2 mm 2 mps 757 mmHg 58%
    21:00 +27°C° 0.2 mm 1 mps 757 mmHg 61%
    22:00 +26°C° 0 mm 1 mps 757 mmHg 62%
    23:00 +26°C° 0 mm 2 mps 757 mmHg 62%

    26 May, Sunday

    Time Temperature Precipitation Wind Pressure Humidity
    00:00 +26°C° 0 mm 2 mps 757 mmHg 62%
    01:00 +25°C° 0 mm 3 mps 757 mmHg 62%
    02:00 +25°C° 0 mm 3 mps 757 mmHg 63%
    03:00 +25°C° 0 mm 4 mps 757 mmHg 63%
    04:00 +25°C° 0 mm 4 mps 757 mmHg 59%
    05:00 +25°C° 0 mm 5 mps 757 mmHg 56%
    06:00 +24°C° 0 mm 6 mps 757 mmHg 52%
    07:00 +27°C° 0 mm 6 mps 757 mmHg 47%
    08:00 +28°C° 0 mm 6 mps 757 mmHg 42%
    09:00 +30°C° 0 mm 6 mps 757 mmHg 38%
    10:00 +32°C° 0.6 mm 6 mps 757 mmHg 36%
    11:00 +33°C° 0.6 mm 6 mps 756 mmHg 35%
    12:00 +33°C° 0.6 mm 5 mps 756 mmHg 34%
    13:00 +33°C° 1.4 mm 5 mps 756 mmHg 37%
    14:00 +33°C° 1.4 mm 4 mps 756 mmHg 39%
    15:00 +33°C° 1.4 mm 4 mps 756 mmHg 41%
    16:00 +31°C° 1.3 mm 3 mps 756 mmHg 47%
    17:00 +30°C° 1.3 mm 3 mps 756 mmHg 53%
    18:00 +29°C° 1.3 mm 2 mps 757 mmHg 58%
    19:00 +28°C° 0.7 mm 2 mps 757 mmHg 61%
    20:00 +26°C° 0.7 mm 2 mps 758 mmHg 65%
    21:00 +25°C° 0.7 mm 3 mps 759 mmHg 68%
    22:00 +24°C° 1.1 mm 3 mps 759 mmHg 71%
    23:00 +23°C° 1.1 mm 4 mps 759 mmHg 74%

    27 May, Monday

    Time Temperature Precipitation Wind Pressure Humidity
    00:00 +22°C° 1.1 mm 4 mps 759 mmHg 77%
    01:00 +22°C° 0.3 mm 4 mps 759 mmHg 75%
    02:00 +22°C° 0.3 mm 4 mps 759 mmHg 73%
    03:00 +22°C° 0.3 mm 5 mps 760 mmHg 71%
    04:00 +22°C° 0 mm 5 mps 760 mmHg 69%
    05:00 +22°C° 0 mm 5 mps 760 mmHg 67%
    06:00 +23°C° 0 mm 5 mps 761 mmHg 65%
    07:00 +25°C° 0 mm 5 mps 761 mmHg 58%
    08:00 +27°C° 0 mm 6 mps 761 mmHg 52%
    09:00 +29°C° 0 mm 7 mps 761 mmHg 46%
    10:00 +30°C° 0 mm 6 mps 760 mmHg 39%
    11:00 +33°C° 0 mm 5 mps 760 mmHg 33%
    12:00 +34°C° 0 mm 4 mps 760 mmHg 27%
    13:00 +34°C° 0 mm 3 mps 760 mmHg 26%
    14:00 +34°C° 0 mm 2 mps 760 mmHg 24%
    15:00 +34°C° 0 mm 1 mps 760 mmHg 23%
    16:00 +33°C° 0.1 mm 1 mps 760 mmHg 26%
    17:00 +32°C° 0.1 mm 1 mps 761 mmHg 30%
    18:00 +32°C° 0.1 mm 1 mps 761 mmHg 33%
    19:00 +30°C° 0 mm 2 mps 762 mmHg 36%
    20:00 +28°C° 0 mm 4 mps 763 mmHg 40%
    21:00 +26°C° 0 mm 5 mps 764 mmHg 43%
    22:00 +26°C° 0 mm 4 mps 764 mmHg 46%
    23:00 +25°C° 0 mm 3 mps 764 mmHg 50%

    28 May, Tuesday

    Time Temperature Precipitation Wind Pressure Humidity
    00:00 +24°C° 0 mm 2 mps 764 mmHg 53%
    01:00 +24°C° 0 mm 2 mps 764 mmHg 53%
    02:00 +23°C° 0 mm 2 mps 764 mmHg 54%
    03:00 +23°C° 0 mm 1 mps 764 mmHg 54%
    04:00 +24°C° 0 mm 1 mps 765 mmHg 53%
    05:00 +24°C° 0 mm 1 mps 765 mmHg 52%
    06:00 +23°C° 0 mm 0 mps 765 mmHg 51%
    07:00 +26°C° 0 mm 1 mps 765 mmHg 48%
    08:00 +27°C° 0 mm 1 mps 765 mmHg 45%
    09:00 +29°C° 0 mm 2 mps 765 mmHg 42%
    10:00 +30°C° 0 mm 2 mps 765 mmHg 39%
    11:00 +31°C° 0 mm 3 mps 764 mmHg 37%
    12:00 +33°C° 0 mm 3 mps 764 mmHg 34%
    13:00 +34°C° 0 mm 3 mps 763 mmHg 34%
    14:00 +34°C° 0 mm 3 mps 763 mmHg 33%
    15:00 +35°C° 0 mm 3 mps 763 mmHg 32%
    16:00 +34°C° 0 mm 3 mps 763 mmHg 34%
    17:00 +34°C° 0 mm 3 mps 763 mmHg 36%
    18:00 +34°C° 0 mm 3 mps 763 mmHg 38%
    19:00 +31°C° 0 mm 3 mps 763 mmHg 40%
    20:00 +29°C° 0 mm 4 mps 764 mmHg 42%
    21:00 +27°C° 0 mm 5 mps 764 mmHg 44%
    22:00 +26°C° 0 mm 4 mps 764 mmHg 45%
    23:00 +25°C° 0 mm 3 mps 764 mmHg 47%
    Show more